Location: Colebrook
(42.0017°N, 73.0973°W)
Time: 06:14:05
(UTC-05:00)

Amateur Radio Satellites - All Passes

Search period start: 04 March 2015 05:44
Search period end: 05 March 2015 05:44
Location: Colebrook, 42.0017°N, 73.0973°W

Satellite Date Start Highest point End Downlink Frequencies (MHz)
Time Altitude Azimuth
JAS-2 04 Mar 05:52:35 05:58:56 31° 296° (WNW) 06:05:24 435.910
RS-15 04 Mar 06:06:44 06:17:04 40° 36° (NE) 06:27:58 29.354- 29.394
CUBESAT XI-V 04 Mar 06:08:01 06:12:32 45° 262° (W) 06:17:04 437.345
AIST 1 04 Mar 06:10:43 06:14:35 32° 91° (E) 06:18:32
AO-7 04 Mar 06:12:46 06:19:10 25° 306° (NW) 06:25:17 29.400- 29.500
PRISM 04 Mar 06:14:07 06:17:50 31° 264° (W) 06:21:35 437.425
Cubesat XI-IV 04 Mar 06:35:12 06:40:34 73° 287° (WNW) 06:45:54 437.490
GONETS M04 04 Mar 06:35:56 06:40:17 15° 55° (NE) 06:45:10
CUTE-I 04 Mar 06:43:45 06:49:04 62° 288° (WNW) 06:54:20 437.470
STRAND 1 04 Mar 06:51:24 06:55:55 30° 265° (W) 07:00:25 437.568
PCSat 04 Mar 06:55:17 06:58:20 15° 255° (WSW) 07:01:06 145.827
CANX-2 04 Mar 07:30:46 07:32:24 12° 88° (E) 07:34:15 2200.000
HO-68 04 Mar 07:46:59 07:52:53 28° 93° (E) 07:58:57 435.675
CUTE 1.7 + AOD 2 04 Mar 07:48:08 07:50:57 18° 91° (E) 07:53:55 437.475
AIST 1 04 Mar 07:48:56 07:52:22 22° 289° (WNW) 07:55:44
O/OREOS (USA 219) 04 Mar 07:57:40 08:01:15 24° 103° (ESE) 08:04:56 437.305
SO-50 04 Mar 08:14:37 08:17:56 18° 38° (NE) 08:21:21 436.795
GOMX 1 04 Mar 08:14:55 08:18:55 36° 96° (E) 08:22:48 467.674
ISS 04 Mar 08:17:27 08:20:40 71° 143° (SE) 08:23:54 145.825
BRITE-PL 04 Mar 08:18:16 08:22:47 62° 100° (E) 08:26:58 437.365/2234.400
Cubesat XI-IV 04 Mar 08:18:35 08:19:51 11° 303° (WNW) 08:20:48 437.490
RS-15 04 Mar 08:19:11 08:30:36 75° 241° (WSW) 08:42:30 29.354- 29.394
AAUSAT CUBESAT 2 04 Mar 08:25:18 08:28:51 27° 95° (E) 08:32:28 437.432
COMPASS 1 04 Mar 08:29:00 08:32:50 34° 96° (E) 08:36:42 437.405
GONETS M04 04 Mar 08:30:21 08:39:07 72° 80° (E) 08:47:55
Oscar 11 04 Mar 08:30:38 08:33:04 15° 90° (E) 08:35:42 145.826/435.025
CINEMA 3 04 Mar 08:38:03 08:41:21 23° 93° (E) 08:44:42 145.822/145.860
DOVE 4 04 Mar 08:41:47 08:45:56 48° 99° (E) 08:49:57 437.250
CUBEBUG 2 04 Mar 08:48:08 08:50:43 16° 91° (E) 08:53:27 437.445
UNISAT 6 04 Mar 08:55:48 08:59:31 28° 69° (ENE) 09:03:14 437.425
QB50P1 04 Mar 08:56:22 08:58:57 16° 66° (ENE) 09:01:41 145.935-145.965
DX 1 04 Mar 08:58:07 09:00:13 14° 90° (E) 09:02:32 434.975-435.025
SEEDS 04 Mar 08:58:36 09:02:51 89° 284° (WNW) 09:07:06 437.485
BUGSAT 1 04 Mar 08:58:44 09:00:36 13° 64° (ENE) 09:02:39 437.445
QB50P2 04 Mar 09:00:30 09:03:22 18° 66° (ENE) 09:06:22 145.880/145.840
CANX-2 04 Mar 09:04:36 09:08:48 58° 286° (WNW) 09:12:58 2200.000
DUCHIFAT 1 04 Mar 09:13:29 09:16:52 24° 68° (ENE) 09:20:20 145.980
FUNcube-1 04 Mar 09:18:03 09:21:23 23° 94° (E) 09:24:47 145.935
TIGRISAT 04 Mar 09:19:29 09:23:42 48° 73° (ENE) 09:27:53 435.000
ZACube-1 04 Mar 09:19:52 09:23:17 25° 94° (E) 09:26:47 437.345
DELFI C3 04 Mar 09:22:48 09:26:43 44° 98° (E) 09:30:39 145.870
CUTE 1.7 + AOD 2 04 Mar 09:23:07 09:27:06 40° 288° (WNW) 09:31:06 437.475
UKube-1 04 Mar 09:24:23 09:27:57 25° 95° (E) 09:31:34 .
ANTELSAT 04 Mar 09:33:52 09:38:15 73° 75° (ENE) 09:42:34 437.575/2403.000
HO-68 04 Mar 09:34:01 09:41:03 58° 292° (WNW) 09:48:02 435.675
POPSAT HIP 1 04 Mar 09:34:40 09:38:40 40° 72° (ENE) 09:42:42 437.405
POLYITAN 1 04 Mar 09:35:01 09:39:02 41° 72° (ENE) 09:43:05 437.675
O/OREOS (USA 219) 04 Mar 09:36:17 09:40:30 35° 300° (WNW) 09:44:44 437.305
UWE-3 04 Mar 09:42:25 09:46:30 56° 100° (E) 09:50:36 435.000/436.395/437.385
GOMX 1 04 Mar 09:53:40 09:56:52 20° 294° (WNW) 09:59:51 467.674
SO-50 04 Mar 09:54:12 09:59:11 84° 236° (SW) 10:04:06 436.795
ISS 04 Mar 09:54:43 09:57:23 23° 341° (NNW) 10:00:01 145.825
NANOSAT C BR1 04 Mar 09:56:52 10:01:08 71° 75° (ENE) 10:05:25 145.865
BRITE-PL 04 Mar 09:58:34 10:00:46 13° 298° (WNW) 10:02:43 437.365/2234.400
AAUSAT CUBESAT 2 04 Mar 10:00:56 10:04:28 26° 291° (WNW) 10:07:54 437.432
COMPASS 1 04 Mar 10:05:10 10:08:23 21° 292° (WNW) 10:11:30 437.405
Oscar 11 04 Mar 10:05:25 10:09:36 48° 287° (WNW) 10:13:46 145.826/435.025
CINEMA 3 04 Mar 10:15:00 10:18:38 28° 290° (WNW) 10:22:10 145.822/145.860
DOVE 4 04 Mar 10:20:53 10:23:20 15° 296° (WNW) 10:25:37 437.250
CUBEBUG 2 04 Mar 10:23:46 10:27:41 40° 288° (WNW) 10:31:35 437.445
50 SAT 04 Mar 10:23:50 10:27:40 47° 99° (E) 10:31:31 437.505
GONETS M04 04 Mar 10:28:30 10:35:14 24° 278° (W) 10:41:38
QB50P1 04 Mar 10:30:22 10:34:31 48° 261° (W) 10:38:40 145.935-145.965
BUGSAT 1 04 Mar 10:31:24 10:35:38 63° 259° (WSW) 10:39:55 437.445
UNISAT 6 04 Mar 10:32:34 10:36:18 26° 265° (W) 10:39:57 437.425
DX 1 04 Mar 10:32:36 10:36:54 55° 287° (WNW) 10:41:09 434.975-435.025
RS-15 04 Mar 10:34:22 10:41:30 18° 260° (W) 10:47:54 29.354- 29.394
QB50P2 04 Mar 10:34:56 10:39:01 42° 262° (W) 10:43:06 145.880/145.840
DANDE 04 Mar 10:38:48 10:41:26 64° 79° (E) 10:44:03 436.750
CUBEBUG 1 04 Mar 10:41:31 10:45:29 32° 96° (E) 10:49:26 437.445
AISAT 04 Mar 10:43:46 10:48:15 81° 103° (ESE) 10:52:40 437.250
HUMSAT D 04 Mar 10:45:00 10:49:06 66° 285° (WNW) 10:53:11 437.325/437.525
DUCHIFAT 1 04 Mar 10:48:47 10:52:37 31° 264° (W) 10:56:24 145.980
VELOX 1 04 Mar 10:52:27 10:56:56 84° 286° (WNW) 11:01:21 145.980
FUNcube-1 04 Mar 10:54:10 10:57:46 28° 290° (WNW) 11:01:19 145.935
ZACube-1 04 Mar 10:56:08 10:59:40 27° 290° (WNW) 11:03:09 437.345
Oscar 19 04 Mar 10:57:57 10:59:54 12° 60° (ENE) 11:02:05 437.125/150
TIGRISAT 04 Mar 10:58:08 11:00:47 15° 269° (W) 11:03:15 435.000
CUSAT 1 04 Mar 10:58:18 11:00:42 33° 263° (W) 11:03:10 437.405
DELFI C3 04 Mar 10:59:02 11:01:38 16° 294° (WNW) 11:04:04 145.870
UKube-1 04 Mar 11:00:18 11:04:08 30° 291° (WNW) 11:07:52 .
TISAT 1 04 Mar 11:05:55 11:07:45 13° 89° (E) 11:09:47 437.305
SPROUT 04 Mar 11:07:44 11:10:16 16° 90° (E) 11:12:58 437.525
POPSAT HIP 1 04 Mar 11:11:45 11:14:47 18° 268° (W) 11:17:41 437.405
POLYITAN 1 04 Mar 11:12:14 11:15:12 18° 269° (W) 11:18:02 437.675
ESTCUBE 1 04 Mar 11:14:36 11:19:11 82° 104° (ESE) 11:23:44 437.505/2401.250
UWE-3 04 Mar 11:20:36 11:22:40 13° 295° (WNW) 11:24:33 435.000/436.395/437.385
HO-68 04 Mar 11:24:53 11:27:27 12° 310° (NW) 11:29:37 435.675
ISS 04 Mar 11:32:42 11:34:40 15° 2° (N) 11:36:36 145.825
NANOSAT C BR1 04 Mar 11:37:17 11:37:35 10° 273° (W) 11:37:36 145.865
SO-50 04 Mar 11:38:15 11:39:04 10° 253° (WSW) 11:39:34 436.795
50 SAT 04 Mar 12:00:10 12:02:20 14° 294° (WNW) 12:04:21 437.505
ITUPSAT 1 04 Mar 12:10:35 12:11:13 10° 86° (E) 12:12:13 437.325
CUBEBUG 1 04 Mar 12:18:09 12:21:44 24° 292° (WNW) 12:25:12 437.445
Gurwin Techsat 1B 04 Mar 12:20:36 12:24:13 19° 63° (ENE) 12:28:00 435.225
AISAT 04 Mar 12:22:59 12:24:17 11° 299° (WNW) 12:25:21 437.250
Oscar 19 04 Mar 12:33:26 12:38:35 90° 225° (SW) 12:43:45 437.125/150
ITAMSAT 1 04 Mar 12:36:24 12:41:03 34° 68° (ENE) 12:45:47 435.822/435.867
TISAT 1 04 Mar 12:39:51 12:43:59 54° 287° (WNW) 12:48:04 437.305
SPROUT 04 Mar 12:42:33 12:46:41 45° 288° (WNW) 12:50:46 437.525
ESTCUBE 1 04 Mar 12:53:57 12:55:28 11° 298° (WNW) 12:56:46 437.505/2401.250
SWISSCUBE 04 Mar 13:08:15 13:12:54 47° 99° (E) 13:17:32 437.505
ISS 04 Mar 13:09:05 13:11:53 26° 21° (NNE) 13:14:42 145.825
BEESAT 04 Mar 13:16:29 13:21:12 52° 100° (E) 13:25:53 436.000
AO-7 04 Mar 13:27:37 13:34:07 27° 55° (NE) 13:40:50 29.400- 29.500
ITUPSAT 1 04 Mar 13:45:01 13:49:52 83° 284° (WNW) 13:54:42 437.325
Gurwin Techsat 1B 04 Mar 13:58:32 14:03:47 59° 259° (W) 14:09:04 435.225
HORYU 2 04 Mar 14:00:20 14:04:27 39° 71° (ENE) 14:08:36 437.375
ITAMSAT 1 04 Mar 14:15:59 14:20:35 30° 265° (W) 14:25:10 435.822/435.867
Oscar 19 04 Mar 14:17:55 14:18:47 10° 274° (W) 14:19:17 437.125/150
JAS-2 04 Mar 14:21:17 14:25:42 25° 61° (ENE) 14:30:41 435.910
KKS-1 04 Mar 14:34:05 14:38:32 66° 101° (ESE) 14:42:55 437.445
STARS 04 Mar 14:36:07 14:40:19 44° 99° (E) 14:44:30 437.465
ISS 04 Mar 14:45:19 14:48:29 52° 220° (SW) 14:51:38 145.825
SWISSCUBE 04 Mar 14:46:55 14:50:29 20° 295° (WNW) 14:53:55 437.505
BEESAT 04 Mar 14:55:21 14:58:42 19° 296° (WNW) 15:01:53 436.000
AO-7 04 Mar 15:17:54 15:26:16 75° 254° (WSW) 15:34:38 29.400- 29.500
YUBILEINY 04 Mar 15:22:30 15:30:56 58° 91° (E) 15:39:31 435.215
ITUPSAT 1 04 Mar 15:26:08 15:27:04 10° 300° (WNW) 15:27:44 437.325
HORYU 2 04 Mar 15:38:03 15:41:19 19° 268° (W) 15:44:28 437.375
BEESAT 3 04 Mar 15:50:53 15:54:16 26° 114° (ESE) 15:57:46 437.485
MOZHAYETS 4 04 Mar 15:59:50 16:03:48 28° 94° (E) 16:07:50
JAS-2 04 Mar 16:05:02 16:10:25 51° 262° (W) 16:16:27 435.910
VERMONT LUNAR 04 Mar 16:06:32 16:09:17 22° 154° (SSE) 16:12:05 437.305
KKS-1 04 Mar 16:12:31 16:14:41 13° 297° (WNW) 16:16:41 437.445
STARS 04 Mar 16:13:27 16:16:31 18° 295° (WNW) 16:19:26 437.465
BEESAT 2 04 Mar 16:18:06 16:21:59 43° 118° (ESE) 16:25:59 435.950
M-CUBED/EXP-1 PRIME 04 Mar 16:18:43 16:22:54 48° 105° (ESE) 16:27:24 437.505
Cubesat XI-IV 04 Mar 16:18:54 16:23:14 26° 65° (ENE) 16:27:42 437.490
AUBIESAT-1 04 Mar 16:18:59 16:23:08 43° 104° (ESE) 16:27:33 437.475
PHONESAT 2.4 04 Mar 16:25:13 16:27:37 17° 151° (SSE) 16:30:04 2401.200-2431.200
CUTE-I 04 Mar 16:26:59 16:31:34 30° 67° (ENE) 16:36:14 437.470
AIST 2 04 Mar 16:27:38 16:30:49 21° 113° (ESE) 16:34:09 435.215
AO-7 04 Mar 17:16:22 17:20:39 14° 275° (W) 17:24:17 29.400- 29.500
YUBILEINY 04 Mar 17:20:36 17:28:19 32° 293° (WNW) 17:35:54 435.215
STRAND 1 04 Mar 17:25:35 17:25:48 10° 85° (E) 17:26:24 437.568
BEESAT 3 04 Mar 17:28:33 17:32:17 32° 312° (NW) 17:36:01 437.485
MOZHAYETS 4 04 Mar 17:36:57 17:41:02 30° 291° (WNW) 17:45:02
VERMONT LUNAR 04 Mar 17:43:25 17:46:51 58° 170° (S) 17:50:18 437.305
BRITE-PL 04 Mar 17:54:10 17:55:51 12° 61° (ENE) 17:57:48 437.365/2234.400
AIST 1 04 Mar 17:54:30 17:58:57 84° 263° (W) 18:03:19
M-CUBED/EXP-1 PRIME 04 Mar 17:54:32 17:57:35 19° 298° (WNW) 18:00:40 437.505
AUBIESAT-1 04 Mar 17:54:32 17:57:47 21° 297° (WNW) 18:01:05 437.475
PRISM 04 Mar 17:56:09 17:59:59 33° 97° (E) 18:03:50 437.425
BEESAT 2 04 Mar 17:57:07 18:00:23 22° 316° (NW) 18:03:38 435.950
Cubesat XI-IV 04 Mar 17:58:02 18:03:09 43° 262° (W) 18:08:16 437.490
PHONESAT 2.4 04 Mar 18:02:05 18:05:38 50° 166° (SSE) 18:09:10 2401.200-2431.200
CUBESAT XI-V 04 Mar 18:04:19 18:08:49 43° 97° (E) 18:13:18 437.345
AIST 2 04 Mar 18:05:10 18:09:13 40° 309° (NW) 18:13:18 435.215
O/OREOS (USA 219) 04 Mar 18:06:16 18:10:45 48° 63° (ENE) 18:15:11 437.305
CUTE-I 04 Mar 18:06:36 18:11:34 37° 264° (W) 18:16:30 437.470
HO-68 04 Mar 18:17:01 18:22:16 23° 58° (ENE) 18:27:44 435.675
CANX-2 04 Mar 18:26:19 18:26:35 10° 63° (ENE) 18:27:04 2200.000
CUTE 1.7 + AOD 2 04 Mar 18:42:33 18:44:43 14° 65° (ENE) 18:47:05 437.475
STRAND 1 04 Mar 19:00:41 19:05:53 89° 114° (ESE) 19:11:01 437.568
AAUSAT CUBESAT 2 04 Mar 19:17:23 19:20:23 20° 68° (ENE) 19:23:29 437.432
VERMONT LUNAR 04 Mar 19:21:11 19:24:39 65° 188° (S) 19:28:07 437.305
COMPASS 1 04 Mar 19:21:16 19:24:39 25° 69° (ENE) 19:28:07 437.405
GOMX 1 04 Mar 19:22:23 19:27:29 48° 73° (ENE) 19:32:22 467.674
Oscar 11 04 Mar 19:26:49 19:28:49 13° 64° (ENE) 19:31:01 145.826/435.025
BRITE-PL 04 Mar 19:28:04 19:33:42 78° 76° (ENE) 19:39:04 437.365/2234.400
PRISM 04 Mar 19:32:01 19:35:19 22° 293° (WNW) 19:38:31 437.425
CINEMA 3 04 Mar 19:40:07 19:43:57 26° 69° (ENE) 19:47:46 145.822/145.860
GONETS M04 04 Mar 19:40:11 19:44:27 15° 77° (ENE) 19:49:15
PHONESAT 2.4 04 Mar 19:40:19 19:43:57 70° 183° (S) 19:47:35 2401.200-2431.200
CUBESAT XI-V 04 Mar 19:42:27 19:46:00 21° 294° (WNW) 19:49:24 437.345
O/OREOS (USA 219) 04 Mar 19:46:47 19:49:49 17° 259° (W) 19:52:39 437.305
DOVE 4 04 Mar 19:47:00 19:52:00 57° 74° (ENE) 19:56:46 437.250
CUBEBUG 2 04 Mar 19:47:17 19:50:04 17° 66° (ENE) 19:52:57 437.445
SEEDS 04 Mar 19:51:03 19:55:11 66° 75° (ENE) 19:59:21 437.485
PCSat 04 Mar 19:51:52 19:57:13 66° 116° (ESE) 20:02:37 145.827
DX 1 04 Mar 19:54:40 19:56:53 14° 63° (ENE) 19:59:17 434.975-435.025
CANX-2 04 Mar 19:57:46 20:01:58 79° 257° (WSW) 20:06:13 2200.000
HO-68 04 Mar 20:02:15 20:09:23 74° 256° (WSW) 20:16:34 435.675
DELFI C3 04 Mar 20:11:29 20:14:57 29° 70° (ENE) 20:18:30 145.870
FUNcube-1 04 Mar 20:14:45 20:17:59 21° 68° (ENE) 20:21:16 145.935
CUTE 1.7 + AOD 2 04 Mar 20:16:10 20:20:17 53° 261° (W) 20:24:26 437.475
ZACube-1 04 Mar 20:16:41 20:20:03 23° 69° (ENE) 20:23:27 437.345
VELOX 1 04 Mar 20:18:33 20:18:51 10° 61° (ENE) 20:19:25 145.980
UKube-1 04 Mar 20:20:00 20:23:27 24° 67° (ENE) 20:26:59 .
RS-15 04 Mar 20:37:57 20:42:42 15° 99° (E) 20:48:24 29.354- 29.394
UWE-3 04 Mar 20:39:55 20:44:10 49° 73° (ENE) 20:48:20 435.000/436.395/437.385
STRAND 1 04 Mar 20:42:06 20:44:25 13° 300° (WNW) 20:46:29 437.568
AAUSAT CUBESAT 2 04 Mar 20:52:03 20:55:51 34° 264° (W) 20:59:38 437.432
COMPASS 1 04 Mar 20:56:45 21:00:19 27° 265° (W) 21:03:50 437.405
VERMONT LUNAR 04 Mar 20:59:15 21:02:17 28° 203° (SSW) 21:05:18 437.305
Oscar 11 04 Mar 21:00:19 21:04:34 60° 260° (W) 21:08:51 145.826/435.025
GOMX 1 04 Mar 21:01:41 21:05:49 22° 268° (W) 21:09:42 467.674
BRITE-PL 04 Mar 21:09:41 21:12:47 14° 272° (W) 21:15:32 437.365/2234.400
50 SAT 04 Mar 21:11:07 21:14:36 30° 71° (ENE) 21:18:07 437.505
CINEMA 3 04 Mar 21:16:48 21:21:06 32° 264° (W) 21:25:11 145.822/145.860
PHONESAT 2.4 04 Mar 21:18:49 21:22:13 37° 199° (SSW) 21:25:36 2401.200-2431.200
CUBEBUG 2 04 Mar 21:22:09 21:26:30 47° 261° (W) 21:30:43 437.445
DOVE 4 04 Mar 21:26:46 21:30:07 17° 270° (W) 21:33:10 437.250
ANTELSAT 04 Mar 21:26:59 21:29:11 14° 90° (E) 21:31:36 437.575/2403.000
DX 1 04 Mar 21:28:21 21:32:42 60° 259° (W) 21:37:04 434.975-435.025
SEEDS 04 Mar 21:30:50 21:31:34 10° 273° (W) 21:32:01 437.485
GONETS M04 04 Mar 21:31:23 21:40:03 81° 96° (E) 21:48:47
PCSat 04 Mar 21:36:57 21:41:10 22° 316° (NW) 21:45:18 145.827
HUMSAT D 04 Mar 21:37:07 21:41:19 90° 157° (SSE) 21:45:30 437.325/437.525
CUBEBUG 1 04 Mar 21:38:14 21:42:03 30° 69° (ENE) 21:45:57 437.445
AISAT 04 Mar 21:41:53 21:46:23 77° 75° (ENE) 21:50:55 437.250
NANOSAT C BR1 04 Mar 21:44:14 21:45:16 11° 88° (E) 21:46:33 145.865
DELFI C3 04 Mar 21:47:01 21:50:13 22° 267° (W) 21:53:20 145.870
FUNcube-1 04 Mar 21:50:11 21:54:11 34° 263° (W) 21:58:05 145.935
VELOX 1 04 Mar 21:50:19 21:54:48 89° 256° (WSW) 21:59:19 145.980
ZACube-1 04 Mar 21:52:21 21:56:18 32° 264° (W) 22:00:09 437.345
UKube-1 04 Mar 21:55:34 21:59:29 32° 263° (W) 22:03:24 .
HO-68 04 Mar 21:55:47 21:58:31 12° 276° (W) 22:00:40 435.675
TISAT 1 04 Mar 21:59:44 22:01:11 12° 63° (ENE) 22:02:49 437.305
SPROUT 04 Mar 22:03:09 22:05:23 14° 64° (ENE) 22:07:47 437.525
DANDE 04 Mar 22:10:02 22:12:35 13° 92° (E) 22:15:13 436.750
ESTCUBE 1 04 Mar 22:14:30 22:19:01 79° 75° (ENE) 22:23:35 437.505/2401.250
BUGSAT 1 04 Mar 22:14:34 22:17:21 18° 91° (E) 22:20:15 437.445
QB50P1 04 Mar 22:15:39 22:19:10 25° 95° (E) 22:22:43 145.935-145.965
UWE-3 04 Mar 22:18:21 22:21:01 15° 269° (W) 22:23:29 435.000/436.395/437.385
QB50P2 04 Mar 22:20:12 22:23:53 29° 95° (E) 22:27:36 145.880/145.840
UNISAT 6 04 Mar 22:23:13 22:27:29 58° 101° (E) 22:31:46 437.425
CUSAT 1 04 Mar 22:24:40 22:28:51 21° 95° (E) 22:32:28 437.405
DUCHIFAT 1 04 Mar 22:33:02 22:36:59 39° 97° (E) 22:40:56 145.980
RS-15 04 Mar 22:42:31 22:53:17 72° 118° (ESE) 23:04:16 29.354- 29.394
50 SAT 04 Mar 22:46:39 22:49:41 20° 267° (W) 22:52:36 437.505
TIGRISAT 04 Mar 22:47:09 22:51:27 78° 285° (WNW) 22:55:47 435.000
POPSAT HIP 1 04 Mar 22:55:10 22:59:24 72° 102° (ESE) 23:03:35 437.405
POLYITAN 1 04 Mar 22:55:50 23:00:05 75° 102° (ESE) 23:04:17 437.675
PHONESAT 2.4 04 Mar 22:59:05 23:00:05 11° 213° (SSW) 23:00:59 2401.200-2431.200
ANTELSAT 04 Mar 23:02:10 23:06:22 52° 287° (WNW) 23:10:36 437.575/2403.000
CUBEBUG 1 04 Mar 23:14:38 23:18:25 26° 266° (W) 23:22:10 437.445
ITUPSAT 1 04 Mar 23:17:08 23:19:34 14° 62° (ENE) 23:22:14 437.325
NANOSAT C BR1 04 Mar 23:17:28 23:21:39 63° 286° (WNW) 23:25:48 145.865
AISAT 04 Mar 23:22:57 23:23:39 10° 273° (W) 23:24:01 437.250
GONETS M04 04 Mar 23:31:33 23:38:08 22° 298° (WNW) 23:44:23
TISAT 1 04 Mar 23:32:12 23:36:29 70° 258° (WSW) 23:40:46 437.305
SPROUT 04 Mar 23:36:47 23:41:04 57° 260° (W) 23:45:22 437.525
BUGSAT 1 04 Mar 23:49:12 23:53:03 37° 289° (WNW) 23:56:49 437.445
DANDE 04 Mar 23:49:15 23:55:54 81° 281° (WNW) 00:00:48 436.750
QB50P1 04 Mar 23:51:25 23:55:03 27° 291° (WNW) 23:58:35 145.935-145.965
QB50P2 04 Mar 23:56:15 23:59:43 24° 292° (WNW) 00:03:05 145.880/145.840
UNISAT 6 05 Mar 00:01:36 00:03:53 14° 296° (WNW) 00:06:00 437.425
CUSAT 1 05 Mar 00:05:58 00:11:42 45° 282° (WNW) 00:16:00 437.405
BEESAT 3 05 Mar 00:09:31 00:12:44 22° 44° (NE) 00:15:59 437.485
DUCHIFAT 1 05 Mar 00:09:36 00:12:36 19° 294° (WNW) 00:15:28 145.980
SO-50 05 Mar 00:09:39 00:13:33 29° 114° (ESE) 00:17:39 436.795
SWISSCUBE 05 Mar 00:15:11 00:19:51 56° 72° (ENE) 00:24:34 437.505
BEESAT 05 Mar 00:23:19 00:28:01 63° 73° (ENE) 00:32:47 436.000
POPSAT HIP 1 05 Mar 00:33:26 00:34:47 11° 297° (WNW) 00:35:53 437.405
POLYITAN 1 05 Mar 00:34:23 00:35:29 11° 298° (WNW) 00:36:22 437.675
BEESAT 2 05 Mar 00:37:26 00:41:12 32° 49° (NE) 00:44:57 435.950
Oscar 19 05 Mar 00:44:59 00:49:28 31° 95° (E) 00:54:01 437.125/150
AIST 2 05 Mar 00:48:38 00:51:46 20° 42° (NE) 00:54:57 435.215
ITAMSAT 1 05 Mar 00:51:18 00:52:30 11° 86° (E) 00:54:04 435.822/435.867
ITUPSAT 1 05 Mar 00:52:12 00:56:58 70° 258° (WSW) 01:01:47 437.325
RS-15 05 Mar 00:56:33 01:06:38 39° 324° (NW) 01:16:50 29.354- 29.394
YUBILEINY 05 Mar 01:32:28 01:39:48 29° 66° (ENE) 01:47:20 435.215
KKS-1 05 Mar 01:32:31 01:36:56 63° 74° (ENE) 01:41:22 437.445
STARS 05 Mar 01:33:30 01:37:39 41° 71° (ENE) 01:41:50 437.465
DANDE 05 Mar 01:38:58 01:39:34 10° 293° (WNW) 01:39:46 436.750
BEESAT 3 05 Mar 01:47:06 01:51:02 42° 243° (WSW) 01:54:53 437.485
SO-50 05 Mar 01:49:42 01:54:01 36° 313° (NW) 01:58:27 436.795
SWISSCUBE 05 Mar 01:55:10 01:58:09 16° 270° (W) 02:00:58 437.505
BEESAT 05 Mar 02:03:46 02:06:24 14° 271° (W) 02:08:47 436.000
Gurwin Techsat 1B 05 Mar 02:14:17 02:19:30 54° 99° (E) 02:24:43 435.225
BEESAT 2 05 Mar 02:15:49 02:19:17 25° 246° (WSW) 02:22:39 435.950
Oscar 19 05 Mar 02:24:16 02:28:50 33° 292° (WNW) 02:33:21 437.125/150
AIST 2 05 Mar 02:26:33 02:30:43 52° 242° (WSW) 02:34:48 435.215
ITAMSAT 1 05 Mar 02:27:35 02:32:51 88° 286° (WNW) 02:38:04 435.822/435.867
PCSat 05 Mar 02:58:04 03:00:02 12° 34° (NE) 03:02:13 145.827
MOZHAYETS 4 05 Mar 03:02:26 03:06:16 28° 69° (ENE) 03:10:12
AUBIESAT-1 05 Mar 03:08:50 03:12:05 53° 69° (ENE) 03:15:31 437.475
M-CUBED/EXP-1 PRIME 05 Mar 03:09:02 03:12:19 62° 70° (ENE) 03:15:47 437.505
STARS 05 Mar 03:11:10 03:14:20 19° 268° (W) 03:17:23 437.465
KKS-1 05 Mar 03:12:02 03:14:05 12° 271° (W) 03:15:54 437.445
JAS-2 05 Mar 03:12:44 03:18:52 27° 90° (E) 03:25:25 435.910
RS-15 05 Mar 03:15:11 03:23:17 22° 357° (N) 03:31:34 29.354- 29.394
AO-7 05 Mar 03:19:25 03:26:52 37° 97° (E) 03:34:24 29.400- 29.500
HORYU 2 05 Mar 03:27:26 03:31:54 78° 102° (ESE) 03:36:22 437.375
YUBILEINY 05 Mar 03:28:39 03:37:23 64° 268° (W) 03:46:02 435.215
Gurwin Techsat 1B 05 Mar 03:55:10 03:59:08 21° 296° (WNW) 04:02:57 435.225
ITAMSAT 1 05 Mar 04:09:26 04:11:40 12° 301° (WNW) 04:13:38 435.822/435.867
PCSat 05 Mar 04:39:24 04:44:45 57° 56° (NE) 04:50:06 145.827
MOZHAYETS 4 05 Mar 04:39:27 04:43:27 29° 265° (W) 04:47:27
STRAND 1 05 Mar 04:40:03 04:43:20 18° 63° (ENE) 04:46:48 437.568
CUTE-I 05 Mar 04:46:26 04:47:10 10° 85° (E) 04:48:17 437.470
PRISM 05 Mar 04:47:14 04:50:42 27° 69° (ENE) 04:54:16 437.425
JAS-2 05 Mar 04:56:56 05:04:22 66° 288° (WNW) 05:12:08 435.910
HORYU 2 05 Mar 05:06:26 05:08:01 11° 298° (WNW) 05:09:23 437.375
CUBESAT XI-V 05 Mar 05:08:01 05:12:27 44° 72° (ENE) 05:16:58 437.345
AO-7 05 Mar 05:11:58 05:19:56 52° 296° (WNW) 05:27:49 29.400- 29.500
YUBILEINY 05 Mar 05:30:08 05:32:38 11° 286° (WNW) 05:34:22 435.215
